User: anonymous   Login
Location: Unspecified
(0.0000°N, 0.0000°E)
Time: 13:54:48
(UTC+02:00)
Language:

Cosmos 1703 Rocket - Orbit

View from above orbital plane
View from above orbital plane
View from above satellite
View from above satellite

Ground track
Ground track

The orbit data is extracted from the following two-line orbital elements,

1 16263U 85108B   15241.96960046  .00000196  00000-0  21305-4 0  9994
2 16263 082.5055 010.7919 0020034 356.9580 144.1071 14.82804205606988
Epoch (UTC): 29 August 2015 23:16:13
Eccentricity: 0.0020034
inclination: 82.5055°
perigee height: 606 km
apogee height: 634 km
right ascension of ascending node: 10.7919°
argument of perigee: 356.9580°
revolutions per day: 14.82804205
mean anomaly at epoch: 144.1071°
orbit number at epoch: 60698

The dashed part of the orbit path shows where the satellite is in the earth's shadow,  

DLR